Flag for Germany Weather past 2 weeks in Flensburg, Schleswig-Holstein, Germany

Now
27 °F

Passing clouds.


Feels Like: 27 °F
Forecast: 28 / 36 °F
Wind: 2 mph from Northwest

Location: Schleswig

Current Time: Dec 28, 2014 at 9:51:17 AM

Latest Report: Dec 28, 2014 at 9:00 AM


Visibility: 11 mi

Pressure: 30.27 "Hg

Humidity: 90%

Dew point: 24 °F

Location of FlensburgLocation

Historic Weather in Flensburg — Graph

°F

Flensburg temperature yesterday

Maximum temperature yesterday: 32 °F (at 2:00 PM)
Minimum temperature yesterday: 26 °F (at 7:00 AM)
Average temperature yesterday: 29 °F

Past Weeks' High & Low Weather Summary

 TemperatureHumidityPressure
High51 °F (Dec 18, 9:00 PM)100% (Dec 14, 7:00 AM)30.35 "Hg (Dec 14, 7:00 AM)
Low24 °F (Dec 26, 5:00 AM)75% (Dec 20, 4:00 PM)29.47 "Hg (Dec 17, 4:00 PM)
Average40 °F94%29.79 "Hg
* Reported Dec 13 8:00 AM — Dec 28 8:00 AM, Flensburg, Weather by CustomWeather, © 2014

Note: Actual official high and low records may vary slightly from our data, if they occured in-between our weather recording intervals... More about our weather records

Advertising

Flensburg weather history for previous 24 hours

 ConditionsComfort  
Time TempWeatherWind HumidityBarometerVisibility
8:00 AM
Dec 28
29 °FPassing clouds.3 mph84%30.23 "Hg12 mi
7:00 AM31 °FOvercast.3 mph82%30.20 "Hg14 mi
6:00 AM31 °FPassing clouds.3 mph86%30.18 "Hg8 mi
5:00 AM31 °FOvercast.3 mph87%30.15 "Hg7 mi
3:00 AM29 °FPassing clouds.3 mph94%30.10 "Hg6 mi
2:00 AM29 °FOvercast.3 mph96%30.07 "Hg6 mi
1:00 AM28 °FClear.5 mph96%30.05 "Hg4 mi
12:00 AM29 °FFog.3 mph95%30.02 "Hg3 mi
11:00 PM
Dec 27
29 °FClear.3 mph94%30.00 "Hg6 mi
9:00 PM29 °FPassing clouds.3 mph89%29.96 "Hg6 mi
8:00 PM29 °FPassing clouds.5 mph86%29.94 "Hg11 mi
7:00 PM27 °FPassing clouds.3 mph87%29.91 "Hg9 mi
6:00 PM28 °FPassing clouds.2 mph81%29.89 "Hg12 mi
5:00 PM30 °FOvercast.3 mph75%29.88 "Hg12 mi
3:00 PM32 °FOvercast.5 mph79%29.85 "Hg9 mi
2:00 PM32 °FOvercast.5 mph83%29.84 "Hg8 mi
1:00 PM32 °FPartly sunny.5 mph90%29.85 "Hg6 mi
12:00 PM30 °FOvercast.5 mph96%29.86 "Hg6 mi
11:00 AM29 °FOvercast.3 mph96%29.87 "Hg6 mi
9:00 AM28 °FFog.3 mph99%29.89 "Hg4 mi
Weather by CustomWeather, © 2014

See weather overviewHow to use our weather pages